| time (UTC) | temp F | wind direction | speed MPH | gust MPH | rain 1hr in | rain 24hr in | rain mn in | humidity % | barometer mb |
| 20260509162307 | 69 | 138 | 6.0 | 14.0 | 0.00 | 0.19 | 0.00 | 66 | 1009.5 |
| 20260509161804 | 69 | 123 | 5.0 | 8.0 | 0.00 | 0.19 | 0.00 | 67 | 1010.0 |
| 20260509161303 | 68 | 157 | 5.0 | 9.0 | 0.00 | 0.19 | 0.00 | 68 | 1010.0 |
| 20260509160804 | 68 | 123 | 5.0 | 7.0 | 0.00 | 0.19 | 0.00 | 68 | 1009.9 |
| 20260509160303 | 68 | 121 | 3.0 | 10.0 | 0.00 | 0.19 | 0.00 | 70 | 1009.9 |
| 20260509155804 | 67 | 325 | 3.0 | 10.0 | 0.00 | 0.19 | 0.00 | 73 | 1009.9 |
| 20260509155306 | 67 | 190 | 5.0 | 10.0 | 0.00 | 0.19 | 0.00 | 75 | 1009.9 |
| 20260509154803 | 66 | 10 | 5.0 | 14.0 | 0.00 | 0.19 | 0.00 | 74 | 1010.0 |
| 20260509154303 | 66 | 155 | 5.0 | 14.0 | 0.00 | 0.19 | 0.00 | 76 | 1010.0 |
| 20260509153803 | 65 | 145 | 5.0 | 9.0 | 0.00 | 0.19 | 0.00 | 77 | 1010.0 |
| 20260509153303 | 65 | 145 | 5.0 | 7.0 | 0.00 | 0.19 | 0.00 | 77 | 1010.0 |
| 20260509152803 | 65 | 145 | 3.0 | 10.0 | 0.00 | 0.19 | 0.00 | 79 | 1010.1 |
| 20260509152306 | 64 | 197 | 5.0 | 10.0 | 0.00 | 0.19 | 0.00 | 79 | 1010.1 |
| 20260509151804 | 64 | 167 | 6.0 | 12.0 | 0.00 | 0.19 | 0.00 | 80 | 1010.1 |
| 20260509151303 | 64 | 145 | 6.0 | 12.0 | 0.00 | 0.19 | 0.00 | 81 | 1010.1 |
| 20260509150804 | 63 | 145 | 6.0 | 8.0 | 0.00 | 0.19 | 0.00 | 82 | 1010.0 |
| 20260509150304 | 63 | 145 | 3.0 | 8.0 | 0.00 | 0.19 | 0.00 | 83 | 1010.0 |
| 20260509145803 | 63 | 145 | 3.0 | 8.0 | 0.00 | 0.19 | 0.00 | 84 | 1010.0 |
| 20260509145306 | 63 | 181 | 3.0 | 9.0 | 0.00 | 0.19 | 0.00 | 84 | 1010.0 |
| 20260509144803 | 63 | 145 | 3.0 | 5.0 | 0.00 | 0.19 | 0.00 | 84 | 1009.9 |
| 20260509144303 | 62 | 234 | 5.0 | 5.0 | 0.00 | 0.19 | 0.00 | 84 | 1009.9 |
| 20260509143803 | 62 | 303 | 5.0 | 6.0 | 0.00 | 0.19 | 0.00 | 85 | 1009.9 |
| 20260509143304 | 62 | 145 | 5.0 | 6.0 | 0.00 | 0.19 | 0.00 | 86 | 1009.9 |
| 20260509142804 | 61 | 145 | 5.0 | 8.0 | 0.00 | 0.19 | 0.00 | 86 | 1009.7 |
| 20260509141803 | 61 | 123 | 5.0 | 8.0 | 0.00 | 0.19 | 0.00 | 88 | 1009.7 |
| 20260509141303 | 61 | 145 | 3.0 | 6.0 | 0.00 | 0.19 | 0.00 | 88 | 1009.7 |
| 20260509140804 | 61 | 145 | 2.0 | 7.0 | 0.00 | 0.19 | 0.00 | 88 | 1009.6 |
| 20260509140303 | 60 | 219 | 2.0 | 6.0 | 0.00 | 0.19 | 0.00 | 88 | 1009.6 |
| 20260509135804 | 60 | 145 | 2.0 | 5.0 | 0.00 | 0.19 | 0.00 | 89 | 1009.6 |
| 20260509135306 | 60 | 229 | 2.0 | 7.0 | 0.00 | 0.19 | 0.00 | 89 | 1009.6 |
| 20260509134803 | 59 | 123 | 2.0 | 3.0 | 0.00 | 0.19 | 0.00 | 89 | 1009.5 |
| 20260509133804 | 59 | 123 | 3.0 | 8.0 | 0.00 | 0.19 | 0.00 | 89 | 1009.5 |
| 20260509133304 | 59 | 173 | 3.0 | 8.0 | 0.00 | 0.19 | 0.00 | 90 | 1009.5 |
| 20260509132306 | 59 | 177 | 3.0 | 8.0 | 0.00 | 0.19 | 0.00 | 90 | 1009.8 |
| 20260509131804 | 59 | 100 | 5.0 | 3.0 | 0.00 | 0.19 | 0.00 | 91 | 1009.8 |
| 20260509130803 | 59 | 167 | 3.0 | 6.0 | 0.00 | 0.19 | 0.00 | 91 | 1009.9 |
| 20260509130304 | 58 | 93 | 2.0 | 10.0 | 0.00 | 0.19 | 0.00 | 91 | 1009.9 |
| 20260509125803 | 58 | 77 | 2.0 | 8.0 | 0.00 | 0.19 | 0.00 | 92 | 1009.9 |
| 20260509125307 | 59 | 167 | 3.0 | 8.0 | 0.00 | 0.19 | 0.00 | 92 | 1009.9 |
| 20260509124804 | 58 | 145 | 2.0 | 9.0 | 0.00 | 0.19 | 0.00 | 93 | 1009.8 |
| 20260509124303 | 58 | 145 | 1.0 | 3.0 | 0.00 | 0.19 | 0.00 | 93 | 1009.8 |
| 20260509122804 | 58 | 145 | 2.0 | 8.0 | 0.00 | 0.19 | 0.00 | 94 | 1009.4 |
| 20260509122306 | 58 | 166 | 2.0 | 8.0 | 0.00 | 0.19 | 0.00 | 94 | 1009.4 |
| 20260509121803 | 58 | 235 | 2.0 | 8.0 | 0.00 | 0.19 | 0.00 | 94 | 1009.4 |
| 20260509121304 | 58 | 121 | 3.0 | 6.0 | 0.00 | 0.19 | 0.00 | 95 | 1009.4 |
| 20260509120803 | 58 | 145 | 3.0 | 7.0 | 0.00 | 0.19 | 0.00 | 95 | 1009.7 |
| 20260509115804 | 58 | 145 | 2.0 | 5.0 | 0.00 | 0.19 | 0.00 | 95 | 1009.7 |
| 20260509115306 | 57 | 208 | 2.0 | 6.0 | 0.00 | 0.19 | 0.00 | 95 | 1009.7 |
| 20260509114803 | 57 | 10 | 1.0 | 5.0 | 0.00 | 0.19 | 0.00 | 95 | 1009.3 |
| 20260509113803 | 57 | 190 | 0.0 | 0.0 | 0.00 | 0.19 | 0.00 | 95 | 1009.3 |
| 20260509113304 | 57 | 133 | 1.0 | 2.0 | 0.00 | 0.19 | 0.00 | 96 | 1009.3 |
| 20260509112804 | 57 | 167 | 0.0 | 2.0 | 0.00 | 0.19 | 0.00 | 96 | 1009.4 |
| 20260509112306 | 57 | 145 | 1.0 | 2.0 | 0.00 | 0.19 | 0.00 | 96 | 1009.4 |
| 20260509111804 | 57 | 347 | 1.0 | 2.0 | 0.00 | 0.19 | 0.00 | 96 | 1009.4 |
| 20260509111303 | 57 | 123 | 2.0 | 5.0 | 0.00 | 0.19 | 0.00 | 96 | 1009.4 |
| 20260509110804 | 57 | 145 | 2.0 | 6.0 | 0.00 | 0.19 | 0.00 | 96 | 1009.7 |
| 20260509105804 | 57 | 145 | 3.0 | 8.0 | 0.00 | 0.19 | 0.00 | 97 | 1009.7 |
| 20260509105306 | 57 | 145 | 4.0 | 8.0 | 0.00 | 0.19 | 0.00 | 96 | 1009.7 |
| 20260509104304 | 57 | 126 | 2.0 | 9.0 | 0.00 | 0.19 | 0.00 | 96 | 1009.1 |
| 20260509103804 | 57 | 190 | 2.0 | 7.0 | 0.00 | 0.19 | 0.00 | 96 | 1009.1 |
| 20260509103304 | 57 | 145 | 2.0 | 6.0 | 0.00 | 0.19 | 0.00 | 96 | 1009.1 |
| 20260509102803 | 57 | 167 | 1.0 | 3.0 | 0.00 | 0.19 | 0.00 | 96 | 1009.0 |
| 20260509102306 | 57 | 117 | 2.0 | 3.0 | 0.00 | 0.19 | 0.00 | 96 | 1009.0 |
| 20260509101804 | 57 | 257 | 2.0 | 8.0 | 0.00 | 0.19 | 0.00 | 96 | 1009.0 |
| 20260509101304 | 57 | 145 | 2.0 | 8.0 | 0.00 | 0.19 | 0.00 | 96 | 1009.0 |
| 20260509100804 | 57 | 190 | 1.0 | 5.0 | 0.00 | 0.19 | 0.00 | 96 | 1009.0 |
| 20260509095803 | 57 | 145 | 1.0 | 5.0 | 0.00 | 0.19 | 0.00 | 96 | 1009.0 |
| 20260509095306 | 57 | 133 | 1.0 | 6.0 | 0.00 | 0.19 | 0.00 | 96 | 1009.0 |
| 20260509094803 | 57 | 145 | 1.0 | 6.0 | 0.00 | 0.19 | 0.00 | 96 | 1008.8 |
| 20260509094303 | 57 | 158 | 2.0 | 5.0 | 0.00 | 0.19 | 0.00 | 96 | 1008.8 |
| 20260509093803 | 57 | 145 | 1.0 | 6.0 | 0.00 | 0.19 | 0.00 | 96 | 1008.8 |
| 20260509093303 | 57 | 145 | 1.0 | 5.0 | 0.00 | 0.19 | 0.00 | 96 | 1008.8 |
| 20260509092804 | 57 | 145 | 2.0 | 0.0 | 0.00 | 0.19 | 0.00 | 96 | 1008.5 |
| 20260509092305 | 57 | 172 | 2.0 | 7.0 | 0.00 | 0.19 | 0.00 | 96 | 1008.5 |
| 20260509091804 | 57 | 190 | 1.0 | 3.0 | 0.00 | 0.19 | 0.00 | 96 | 1008.5 |
| 20260509091304 | 57 | 123 | 0.0 | 2.0 | 0.00 | 0.19 | 0.00 | 96 | 1008.5 |
| 20260509090803 | 57 | 145 | 1.0 | 2.0 | 0.00 | 0.19 | 0.00 | 96 | 1008.7 |
| 20260509090304 | 57 | 145 | 1.0 | 3.0 | 0.00 | 0.19 | 0.00 | 96 | 1008.7 |
| 20260509085804 | 57 | 145 | 0.0 | 0.0 | 0.00 | 0.19 | 0.00 | 96 | 1008.7 |
| 20260509085306 | 57 | 125 | 1.0 | 0.0 | 0.00 | 0.19 | 0.00 | 96 | 1008.7 |
| 20260509084804 | 57 | 145 | 1.0 | 0.0 | 0.00 | 0.19 | 0.00 | 96 | 1008.6 |
| 20260509084304 | 57 | 157 | 1.0 | 3.0 | 0.00 | 0.19 | 0.00 | 96 | 1008.6 |
| 20260509083803 | 57 | 123 | 1.0 | 2.0 | 0.00 | 0.19 | 0.00 | 96 | 1008.6 |
| 20260509082804 | 57 | 145 | 1.0 | 0.0 | 0.00 | 0.19 | 0.00 | 96 | 1008.7 |
| 20260509081803 | 57 | 145 | 2.0 | 0.0 | 0.00 | 0.19 | 0.00 | 96 | 1008.7 |
| 20260509081304 | 57 | 145 | 3.0 | 5.0 | 0.00 | 0.19 | 0.00 | 96 | 1008.7 |
| 20260509080804 | 57 | 145 | 3.0 | 5.0 | 0.00 | 0.19 | 0.00 | 96 | 1008.5 |
| 20260509080303 | 57 | 145 | 2.0 | 5.0 | 0.00 | 0.19 | 0.00 | 96 | 1008.5 |
| 20260509075306 | 57 | 138 | 1.0 | 6.0 | 0.00 | 0.19 | 0.00 | 96 | 1008.5 |
| 20260509074804 | 57 | 145 | 1.0 | 6.0 | 0.00 | 0.19 | 0.00 | 96 | 1008.5 |
| 20260509074303 | 57 | 167 | 1.0 | 3.0 | 0.00 | 0.19 | 0.00 | 96 | 1008.5 |
| 20260509073804 | 57 | 145 | 1.0 | 5.0 | 0.00 | 0.19 | 0.00 | 96 | 1008.5 |
| 20260509073304 | 57 | 145 | 0.0 | 5.0 | 0.00 | 0.19 | 0.00 | 96 | 1008.5 |
| 20260509072804 | 57 | 145 | 0.0 | 0.0 | 0.00 | 0.19 | 0.00 | 96 | 1008.7 |
| 20260509072306 | 57 | 145 | 0.0 | 0.0 | 0.00 | 0.19 | 0.00 | 95 | 1008.7 |
| 20260509071804 | 57 | 280 | 0.0 | 0.0 | 0.00 | 0.19 | 0.00 | 95 | 1008.7 |
| 20260509071304 | 57 | 145 | 0.0 | 0.0 | 0.00 | 0.19 | 0.00 | 95 | 1008.7 |
| 20260509070803 | 57 | 145 | 0.0 | 0.0 | 0.00 | 0.19 | 0.00 | 95 | 1008.7 |
| 20260509070304 | 57 | 135 | 0.0 | 0.0 | 0.00 | 0.19 | 0.00 | 95 | 1008.7 |
| 20260509065804 | 57 | 123 | 0.0 | 0.0 | 0.00 | 0.19 | 0.00 | 94 | 1008.7 |
| 20260509065306 | 57 | 123 | 0.0 | 0.0 | 0.00 | 0.19 | 0.00 | 94 | 1008.7 |
| 20260509064804 | 57 | 123 | 0.0 | 0.0 | 0.00 | 0.19 | 0.00 | 94 | 1008.5 |
| 20260509064304 | 57 | 123 | 0.0 | 0.0 | 0.00 | 0.19 | 0.00 | 94 | 1008.5 |
| 20260509063804 | 57 | 123 | 0.0 | 0.0 | 0.00 | 0.19 | 0.00 | 94 | 1008.5 |
| 20260509063304 | 57 | 123 | 0.0 | 0.0 | 0.00 | 0.19 | 0.00 | 94 | 1008.5 |
| 20260509062804 | 58 | 123 | 0.0 | 0.0 | 0.00 | 0.19 | 0.00 | 94 | 1008.3 |
| 20260509062306 | 58 | 123 | 0.0 | 0.0 | 0.00 | 0.19 | 0.00 | 94 | 1008.3 |
| 20260509061804 | 58 | 190 | 0.0 | 0.0 | 0.00 | 0.19 | 0.00 | 94 | 1008.3 |
| 20260509061304 | 58 | 190 | 0.0 | 0.0 | 0.00 | 0.19 | 0.00 | 94 | 1008.3 |
| 20260509060804 | 58 | 190 | 0.0 | 0.0 | 0.00 | 0.19 | 0.00 | 94 | 1008.8 |
| 20260509060304 | 58 | 235 | 0.0 | 0.0 | 0.00 | 0.19 | 0.00 | 94 | 1008.8 |
| 20260509055804 | 58 | 190 | 0.0 | 0.0 | 0.00 | 0.19 | 0.00 | 94 | 1008.8 |
| 20260509055306 | 58 | 167 | 0.0 | 0.0 | 0.00 | 0.19 | 0.00 | 94 | 1008.8 |
| 20260509054802 | 58 | 167 | 0.0 | 0.0 | 0.00 | 0.19 | 0.00 | 94 | 1008.6 |
| 20260509053302 | 58 | 143 | 0.0 | 0.0 | 0.00 | 0.19 | 0.00 | 94 | 1008.6 |
| 20260509052802 | 58 | 190 | 0.0 | 0.0 | 0.00 | 0.19 | 0.00 | 94 | 1008.4 |
| 20260509052306 | 58 | 118 | 0.0 | 0.0 | 0.00 | 0.19 | 0.00 | 94 | 1008.4 |
| 20260509051802 | 58 | 145 | 0.0 | 0.0 | 0.00 | 0.19 | 0.00 | 94 | 1008.4 |
| 20260509051302 | 58 | 106 | 0.0 | 0.0 | 0.00 | 0.19 | 0.00 | 94 | 1008.4 |
| 20260509050820 | 58 | 145 | 0.0 | 0.0 | 0.00 | 0.19 | 0.00 | 93 | 1008.9 |
| 20260509050302 | 59 | 182 | 0.0 | 0.0 | 0.00 | 0.19 | 0.00 | 93 | 1008.9 |
| 20260509045802 | 59 | 145 | 0.0 | 0.0 | 0.00 | 0.19 | 0.19 | 94 | 1008.9 |
| 20260509045306 | 59 | 125 | 0.0 | 5.0 | 0.00 | 0.19 | 0.19 | 94 | 1008.9 |
| 20260509044803 | 59 | 145 | 0.0 | 0.0 | 0.00 | 0.19 | 0.19 | 93 | 1008.9 |
| 20260509044302 | 59 | 145 | 0.0 | 2.0 | 0.00 | 0.19 | 0.19 | 93 | 1008.9 |
| 20260509043802 | 59 | 213 | 0.0 | 2.0 | 0.00 | 0.19 | 0.19 | 94 | 1008.9 |
| 20260509043302 | 59 | 135 | 0.0 | 0.0 | 0.03 | 0.19 | 0.19 | 94 | 1008.9 |
| 20260509042802 | 59 | 167 | 0.0 | 3.0 | 0.03 | 0.19 | 0.19 | 93 | 1009.5 |
| 20260509042306 | 59 | 77 | 0.0 | 0.0 | 0.06 | 0.19 | 0.19 | 93 | 1009.5 |
| 20260509041803 | 59 | 33 | 0.0 | 0.0 | 0.10 | 0.19 | 0.19 | 93 | 1009.5 |
| 20260509041302 | 59 | 282 | 0.0 | 0.0 | 0.10 | 0.19 | 0.19 | 92 | 1009.5 |
| 20260509040803 | 59 | 145 | 0.0 | 2.0 | 0.10 | 0.19 | 0.19 | 92 | 1009.7 |
| 20260509040302 | 59 | 167 | 0.0 | 2.0 | 0.10 | 0.19 | 0.19 | 92 | 1009.7 |
| 20260509035802 | 59 | 145 | 0.0 | 2.0 | 0.10 | 0.19 | 0.19 | 92 | 1009.7 |
| 20260509035305 | 59 | 350 | 0.0 | 0.0 | 0.13 | 0.19 | 0.19 | 90 | 1009.7 |
| 20260509034803 | 59 | 145 | 0.0 | 0.0 | 0.16 | 0.19 | 0.19 | 90 | 1009.9 |
| 20260509034303 | 59 | 123 | 0.0 | 0.0 | 0.19 | 0.19 | 0.19 | 90 | 1009.9 |
| 20260509033803 | 60 | 145 | 0.0 | 0.0 | 0.19 | 0.19 | 0.19 | 90 | 1009.9 |
| 20260509033302 | 60 | 167 | 0.0 | 3.0 | 0.16 | 0.16 | 0.16 | 90 | 1009.9 |
| 20260509032306 | 60 | 169 | 0.0 | 0.0 | 0.13 | 0.13 | 0.13 | 89 | 1010.3 |
| 20260509031803 | 60 | 123 | 0.0 | 0.0 | 0.10 | 0.10 | 0.10 | 89 | 1010.3 |
| 20260509030802 | 60 | 123 | 0.0 | 0.0 | 0.10 | 0.10 | 0.10 | 88 | 1010.4 |
| 20260509030302 | 60 | 182 | 0.0 | 0.0 | 0.10 | 0.10 | 0.10 | 88 | 1010.4 |
| 20260509025802 | 60 | 145 | 0.0 | 0.0 | 0.10 | 0.10 | 0.10 | 87 | 1010.4 |
| 20260509025306 | 60 | 145 | 0.0 | 3.0 | 0.06 | 0.06 | 0.06 | 85 | 1010.4 |
| 20260509024802 | 60 | 303 | 0.0 | 0.0 | 0.03 | 0.03 | 0.03 | 83 | 1009.9 |
| 20260509024302 | 61 | 303 | 0.0 | 0.0 | 0.00 | 0.00 | 0.00 | 83 | 1009.9 |
| 20260509023803 | 61 | 167 | 0.0 | 2.0 | 0.00 | 0.00 | 0.00 | 82 | 1009.9 |
| 20260509022802 | 61 | 167 | 0.0 | 0.0 | 0.00 | 0.00 | 0.00 | 80 | 1009.7 |
| 20260509022306 | 61 | 160 | 0.0 | 2.0 | 0.00 | 0.00 | 0.00 | 80 | 1009.7 |
| 20260509021802 | 62 | 280 | 0.0 | 0.0 | 0.00 | 0.00 | 0.00 | 79 | 1009.7 |
| 20260509021302 | 61 | 123 | 0.0 | 0.0 | 0.00 | 0.00 | 0.00 | 78 | 1009.7 |
| 20260509020802 | 61 | 145 | 0.0 | 0.0 | 0.00 | 0.00 | 0.00 | 78 | 1008.6 |
| 20260509020302 | 61 | 156 | 0.0 | 0.0 | 0.00 | 0.00 | 0.00 | 77 | 1008.6 |
| 20260509014802 | 61 | 280 | 0.0 | 3.0 | 0.00 | 0.00 | 0.00 | 76 | 1008.5 |
| 20260509014302 | 62 | 324 | 0.0 | 0.0 | 0.00 | 0.00 | 0.00 | 76 | 1008.5 |
| 20260509013803 | 62 | 303 | 0.0 | 0.0 | 0.00 | 0.00 | 0.00 | 76 | 1008.5 |
| 20260509013302 | 62 | 303 | 0.0 | 0.0 | 0.00 | 0.00 | 0.00 | 76 | 1008.5 |
| 20260509012803 | 62 | 303 | 0.0 | 0.0 | 0.00 | 0.00 | 0.00 | 75 | 1008.5 |
| 20260509012302 | 62 | 82 | 0.0 | 3.0 | 0.00 | 0.00 | 0.00 | 75 | 1008.5 |
| 20260509011803 | 62 | 347 | 0.0 | 3.0 | 0.00 | 0.00 | 0.00 | 73 | 1008.5 |
| 20260509011302 | 63 | 278 | 1.0 | 2.0 | 0.00 | 0.00 | 0.00 | 73 | 1008.5 |
| 20260509010802 | 63 | 303 | 1.0 | 3.0 | 0.00 | 0.00 | 0.00 | 70 | 1008.2 |
| 20260509010303 | 64 | 227 | 2.0 | 7.0 | 0.00 | 0.00 | 0.00 | 68 | 1008.2 |
| 20260509005306 | 65 | 323 | 1.0 | 5.0 | 0.00 | 0.00 | 0.00 | 66 | 1008.2 |
| 20260509004303 | 66 | 303 | 3.0 | 7.0 | 0.00 | 0.00 | 0.00 | 63 | 1008.1 |
| 20260509003803 | 67 | 33 | 5.0 | 8.0 | 0.00 | 0.00 | 0.00 | 60 | 1008.1 |
| 20260509003302 | 67 | 325 | 5.0 | 8.0 | 0.00 | 0.00 | 0.00 | 59 | 1008.1 |
| 20260509002802 | 68 | 10 | 5.0 | 8.0 | 0.00 | 0.00 | 0.00 | 56 | 1007.9 |
| 20260509002305 | 68 | 50 | 5.0 | 10.0 | 0.00 | 0.00 | 0.00 | 55 | 1007.9 |
| 20260509001803 | 69 | 303 | 2.0 | 9.0 | 0.00 | 0.00 | 0.00 | 54 | 1007.9 |
| 20260509001303 | 69 | 347 | 2.0 | 9.0 | 0.00 | 0.00 | 0.00 | 53 | 1007.9 |
| 20260509000803 | 70 | 347 | 2.0 | 5.0 | 0.00 | 0.00 | 0.00 | 53 | 1007.7 |
| 20260508235803 | 70 | 257 | 3.0 | 8.0 | 0.00 | 0.00 | 0.00 | 52 | 1007.7 |
| 20260508235306 | 71 | 332 | 2.0 | 8.0 | 0.00 | 0.00 | 0.00 | 52 | 1007.7 |
| 20260508234802 | 71 | 347 | 2.0 | 3.0 | 0.00 | 0.00 | 0.00 | 49 | 1008.0 |
| 20260508234302 | 71 | 283 | 3.0 | 6.0 | 0.00 | 0.00 | 0.00 | 49 | 1008.0 |
| 20260508233802 | 72 | 257 | 3.0 | 6.0 | 0.00 | 0.00 | 0.00 | 48 | 1008.0 |
| 20260508233303 | 72 | 351 | 3.0 | 6.0 | 0.00 | 0.00 | 0.00 | 47 | 1008.0 |
| 20260508232803 | 73 | 303 | 2.0 | 7.0 | 0.00 | 0.00 | 0.00 | 47 | 1007.8 |
| 20260508232306 | 73 | 319 | 2.0 | 7.0 | 0.00 | 0.00 | 0.00 | 46 | 1007.8 |
| 20260508231802 | 73 | 145 | 2.0 | 5.0 | 0.00 | 0.00 | 0.00 | 45 | 1007.8 |
| 20260508231303 | 73 | 359 | 2.0 | 8.0 | 0.00 | 0.00 | 0.00 | 44 | 1007.8 |
| 20260508230803 | 73 | 347 | 2.0 | 8.0 | 0.00 | 0.00 | 0.00 | 43 | 1007.5 |
| 20260508230302 | 74 | 247 | 3.0 | 8.0 | 0.00 | 0.00 | 0.00 | 42 | 1007.5 |
| 20260508225802 | 75 | 347 | 3.0 | 5.0 | 0.00 | 0.00 | 0.00 | 41 | 1007.5 |
| 20260508225306 | 76 | 18 | 2.0 | 6.0 | 0.00 | 0.00 | 0.00 | 40 | 1007.5 |
| 20260508224802 | 76 | 55 | 2.0 | 9.0 | 0.00 | 0.00 | 0.00 | 39 | 1007.7 |
| 20260508223802 | 76 | 280 | 2.0 | 5.0 | 0.00 | 0.00 | 0.00 | 39 | 1007.7 |
| 20260508222802 | 77 | 190 | 3.0 | 5.0 | 0.00 | 0.00 | 0.00 | 38 | 1007.3 |
| 20260508221303 | 81 | 145 | 5.0 | 13.0 | 0.00 | 0.00 | 0.00 | 36 | 1007.3 |
| 20260508220803 | 80 | 123 | 6.0 | 9.0 | 0.00 | 0.00 | 0.00 | 36 | 1007.5 |
| 20260508215803 | 77 | 33 | 5.0 | 8.0 | 0.00 | 0.00 | 0.00 | 37 | 1007.5 |
| 20260508215306 | 79 | 69 | 5.0 | 10.0 | 0.00 | 0.00 | 0.00 | 36 | 1007.5 |
| 20260508214803 | 81 | 123 | 5.0 | 22.0 | 0.00 | 0.00 | 0.00 | 35 | 1007.7 |
| 20260508214303 | 81 | 86 | 5.0 | 15.0 | 0.00 | 0.00 | 0.00 | 36 | 1007.7 |
| 20260508213802 | 81 | 347 | 5.0 | 3.0 | 0.00 | 0.00 | 0.00 | 35 | 1007.7 |
| 20260508213303 | 80 | 275 | 5.0 | 13.0 | 0.00 | 0.00 | 0.00 | 36 | 1007.7 |
| 20260508212803 | 79 | 347 | 5.0 | 8.0 | 0.00 | 0.00 | 0.00 | 37 | 1008.4 |
| 20260508212306 | 78 | 190 | 5.0 | 10.0 | 0.00 | 0.00 | 0.00 | 39 | 1008.4 |
| 20260508211803 | 78 | 325 | 3.0 | 8.0 | 0.00 | 0.00 | 0.00 | 39 | 1008.4 |
| 20260508211303 | 76 | 43 | 5.0 | 13.0 | 0.00 | 0.00 | 0.00 | 39 | 1008.4 |
| 20260508210803 | 76 | 347 | 5.0 | 6.0 | 0.00 | 0.00 | 0.00 | 37 | 1008.0 |
| 20260508210302 | 77 | 261 | 7.0 | 14.0 | 0.00 | 0.00 | 0.00 | 37 | 1008.0 |
| 20260508205803 | 78 | 167 | 7.0 | 14.0 | 0.00 | 0.00 | 0.00 | 36 | 1008.0 |
| 20260508205306 | 80 | 303 | 6.0 | 12.0 | 0.00 | 0.00 | 0.00 | 37 | 1008.0 |
| 20260508204803 | 80 | 325 | 5.0 | 15.0 | 0.00 | 0.00 | 0.00 | 39 | 1008.4 |
| 20260508204302 | 80 | 145 | 5.0 | 15.0 | 0.00 | 0.00 | 0.00 | 38 | 1008.4 |
| 20260508203303 | 80 | 138 | 6.0 | 21.0 | 0.00 | 0.00 | 0.00 | 39 | 1008.4 |
| 20260508202803 | 80 | 190 | 5.0 | 5.0 | 0.00 | 0.00 | 0.00 | 41 | 1008.8 |
| 20260508202306 | 78 | 135 | 6.0 | 13.0 | 0.00 | 0.00 | 0.00 | 40 | 1008.8 |
| 20260508201802 | 78 | 145 | 5.0 | 8.0 | 0.00 | 0.00 | 0.00 | 41 | 1008.8 |
| 20260508201303 | 79 | 347 | 3.0 | 8.0 | 0.00 | 0.00 | 0.00 | 40 | 1008.8 |
| 20260508200802 | 78 | 213 | 6.0 | 7.0 | 0.00 | 0.00 | 0.00 | 41 | 1008.9 |
| 20260508195802 | 78 | 145 | 5.0 | 15.0 | 0.00 | 0.00 | 0.00 | 40 | 1008.9 |
| 20260508195305 | 77 | 221 | 6.0 | 12.0 | 0.00 | 0.00 | 0.00 | 42 | 1008.9 |
| 20260508194803 | 79 | 347 | 6.0 | 14.0 | 0.00 | 0.00 | 0.00 | 40 | 1009.0 |
| 20260508194303 | 80 | 100 | 5.0 | 8.0 | 0.00 | 0.00 | 0.00 | 41 | 1009.0 |
| 20260508193803 | 79 | 167 | 6.0 | 8.0 | 0.00 | 0.00 | 0.00 | 43 | 1009.0 |
| 20260508193303 | 77 | 199 | 6.0 | 13.0 | 0.00 | 0.00 | 0.00 | 42 | 1009.0 |
| 20260508192803 | 77 | 145 | 5.0 | 12.0 | 0.00 | 0.00 | 0.00 | 43 | 1009.3 |
| 20260508192306 | 75 | 133 | 5.0 | 12.0 | 0.00 | 0.00 | 0.00 | 45 | 1009.3 |
| 20260508191803 | 74 | 190 | 5.0 | 12.0 | 0.00 | 0.00 | 0.00 | 47 | 1009.3 |
| 20260508191303 | 73 | 176 | 5.0 | 12.0 | 0.00 | 0.00 | 0.00 | 48 | 1009.3 |
| 20260508190802 | 73 | 235 | 5.0 | 12.0 | 0.00 | 0.00 | 0.00 | 48 | 1009.4 |
| 20260508185802 | 72 | 213 | 5.0 | 12.0 | 0.00 | 0.00 | 0.00 | 50 | 1009.4 |
| 20260508185306 | 72 | 144 | 5.0 | 10.0 | 0.00 | 0.00 | 0.00 | 51 | 1009.4 |
| 20260508184803 | 72 | 145 | 5.0 | 9.0 | 0.00 | 0.00 | 0.00 | 50 | 1009.7 |
| 20260508184303 | 72 | 145 | 5.0 | 9.0 | 0.00 | 0.00 | 0.00 | 51 | 1009.7 |
| 20260508183803 | 73 | 167 | 6.0 | 5.0 | 0.00 | 0.00 | 0.00 | 51 | 1009.7 |
| 20260508183302 | 72 | 157 | 5.0 | 10.0 | 0.00 | 0.00 | 0.00 | 52 | 1009.7 |
| 20260508182803 | 72 | 190 | 3.0 | 9.0 | 0.00 | 0.00 | 0.00 | 51 | 1010.2 |
| 20260508181803 | 71 | 167 | 3.0 | 5.0 | 0.00 | 0.00 | 0.00 | 52 | 1010.2 |
| 20260508181303 | 71 | 142 | 3.0 | 10.0 | 0.00 | 0.00 | 0.00 | 52 | 1010.2 |
| 20260508180303 | 71 | 151 | 5.0 | 13.0 | 0.00 | 0.00 | 0.00 | 53 | 1010.1 |
| 20260508175803 | 71 | 303 | 5.0 | 13.0 | 0.00 | 0.00 | 0.00 | 52 | 1010.1 |
| 20260508175305 | 71 | 173 | 3.0 | 9.0 | 0.00 | 0.00 | 0.00 | 53 | 1010.1 |
| 20260508174803 | 71 | 167 | 2.0 | 6.0 | 0.00 | 0.00 | 0.00 | 54 | 1010.9 |
| 20260508174302 | 70 | 96 | 4.0 | 8.0 | 0.00 | 0.00 | 0.00 | 54 | 1010.9 |
| 20260508173803 | 69 | 145 | 4.0 | 6.0 | 0.00 | 0.00 | 0.00 | 54 | 1010.9 |
| 20260508173303 | 69 | 167 | 2.0 | 6.0 | 0.00 | 0.00 | 0.00 | 55 | 1010.9 |
| 20260508172803 | 69 | 145 | 2.0 | 6.0 | 0.00 | 0.00 | 0.00 | 55 | 1011.2 |
| 20260508172306 | 68 | 145 | 3.0 | 6.0 | 0.00 | 0.00 | 0.00 | 56 | 1011.2 |
| 20260508171803 | 67 | 123 | 4.0 | 8.0 | 0.00 | 0.00 | 0.00 | 56 | 1011.2 |
| 20260508171303 | 67 | 145 | 2.0 | 8.0 | 0.00 | 0.00 | 0.00 | 56 | 1011.2 |
| 20260508170803 | 67 | 167 | 1.0 | 7.0 | 0.00 | 0.00 | 0.00 | 58 | 1011.4 |
| 20260508170303 | 67 | 155 | 2.0 | 6.0 | 0.00 | 0.00 | 0.00 | 58 | 1011.4 |
| 20260508165802 | 67 | 190 | 1.0 | 6.0 | 0.00 | 0.00 | 0.00 | 58 | 1011.4 |
| 20260508164802 | 67 | 167 | 0.0 | 2.0 | 0.00 | 0.00 | 0.00 | 59 | 1011.9 |
| 20260508163803 | 65 | 303 | 0.0 | 3.0 | 0.00 | 0.00 | 0.00 | 59 | 1011.9 |
| 20260508163303 | 64 | 164 | 1.0 | 3.0 | 0.00 | 0.00 | 0.00 | 59 | 1011.9 |
| 20260508162803 | 64 | 145 | 1.0 | 3.0 | 0.00 | 0.00 | 0.00 | 59 | 1011.9 |